Terminal Aerodrome Forecast
Issued by NWS

Home | Current Version | Previous Version | Text Only | Print | Product List | Glossary On
Versions: 1 2 3 4 5 6 7 8 9 10 11 12
000
FTUS44 KSJT 311100
TAFBBD
TAF
KBBD 311132Z 3112/0112 02009KT P6SM BKN018 BKN100
     FM311800 34011KT P6SM BKN035
     FM010000 02006KT P6SM BKN120=

USA.gov is the U.S. government's official web portal to all federal, state and local government web resources and services.